Weather in Mynchakovo

Russia / Vologda Oblast     59°27′59″N   39°09′29″E
temp.,
°C
wind,
m/s
gust,
m/s
humid.,
%
clouds,
%
prec.,
mm/h
press.,
hPa
HPBL,
m
2 august, mon
mon200:00+15sw389817 0.1 1007179
03:00+15ssw2596100 0.1 1007106
06:00+15wsw2797100 0.0 1007215
09:00+19w2476100 0.0 1008411
12:00+24sw354588 0.0 10071511
15:00+26ssw3539100 0.0 10062149
18:00+25s2352100 0.0 1004198
21:00+19se4129372 1.0 1001383
3 august, tue
tue300:00+19sse61695100 3.9 999807
03:00+17ssw61489100 4.0 999926
06:00+17sw71368100 0.1 10001214
09:00+18wsw7106364 0.1 10021123
12:00+22wsw69465 0.0 10041664
15:00+22sw6948100 0.0 10051927
18:00+21ssw47525 0.0 10051014
21:00+18sw411602 0.0 1005435
4 august, wed
wed400:00+14sw311820 0.0 1007363
03:00+13wsw310920 0.0 1009325
06:00+12w389248 0.0 1011415
09:00+15w356844 0.0 1013877
12:00+20wnw45385 0.0 10141988
15:00+21w453475 0.0 10142541
18:00+18w36482 0.0 1015669
21:00+13w236451 0.0 101646
5 august, thu
thu500:00+15wsw2660100 0.0 1017140
03:00+13wnw236632 0.0 101870
06:00+13nnw126926 0.0 101854
09:00+18nne114783 0.0 1019482
12:00+22nw123363 0.0 10192430
15:00+21wnw223769 0.0 10191895
18:00+20n1148100 0.0 1019214
21:00+14sse006277 0.0 102010
6 august, fri
fri600:00+13nne116265 0.0 102010
03:00+13nnw116271 0.0 102111
06:00+14ene116452 0.0 102135
09:00+19ene22466 0.0 1021547
12:00+22ene22328 0.0 10212443
15:00+23e222934 0.0 10202608
18:00+21e5640100 0.0 1020821
21:00+16ese41159100 0.0 1021298